Temp
1 2 2 3 2 2 3 3 3 4 4 5 4 4 3 3 4 5 5 5 5 5 5 5 5 5 5 5 5 5 5 5 5 5 4 5 4 4 5 5 5 5 5
1 2 2 2 2 2 2 2 3 3 4 5 4 2 3 4 4 5 5 5 5 5 5 5 5 5 5 5 5 5 5 5 5 4 4 3 3 5 5 5 4 4 4
0 1 2 1 2 1 1 1 2 3 3 3 3 3 3 3 3 4 4 4 5 5 5 5 5 5 5 5 4 5 5 4 4 4 4 3 3 3 4 4 3 3 4
0 1 1 1 1 2 3 2 1 3 3 3 2 2 3 1 1 1 2 3 4 4 4 4 5 5 4 4 4 4 4 4 3 4 4 3 3 3 3 3 2 2 3
0 1 1 1 2 2 2 1 1 2 1 2 2 1 0 1 1 1 2 3 3 3 4 4 3 3 3 2 2 2 2 3 3 3 3 2 3 3 2 2 2 2 2
0 0 1 1 1 1 1 2 1 2 2 2 2 1 1 2 2 1 2 2 2 3 3 2 2 2 2 2 1 2 2 2 3 3 3 3 2 3 3 2 2 2 2
1 0 0 0 0 0 1 2 2 2 2 2 1 2 1 1 1 1 1 1 2 2 2 2 2 1 2 2 2 2 2 2 2 1 2 4 2 3 2 2 2 1 1
0 0 -0 1 2 1 1 0 1 1 0 1 1 1 1 1 2 1 1 1 1 1 2 1 2 3 1 2 2 2 2 2 1 2 1 3 3 3 2 3 2 2 1
0 -0 -0 0 0 1 1 1 1 1 1 1 1 1 1 1 1 1 1 1 1 1 1 1 1 1 2 1 2 2 2 2 1 1 3 3 2 3 2 1 1 1 1
-0 -0 -0 0 0 1 1 1 1 1 2 2 2 2 1 2 2 2 2 1 2 2 1 1 2 2 2 2 1 1 2 1 1 3 3 3 3 2 2 1 1 0 1
-1 -2 -2 -1 -0 1 1 1 1 1 1 2 2 2 1 1 1 1 2 2 1 1 2 1 1 1 2 2 2 2 2 2 3 3 3 3 3 3 2 1 -0 -1 -0
-2 -0 0 1 1 1 1 1 1 2 2 2 2 2 2 1 1 1 1 1 1 2 2 2 2 2 2 2 2 2 2 2 2 2 2 2 2 2 1 1 0 0 -0
0 0 0 1 1 1 1 1 1 1 1 2 2 2 2 2 2 2 2 1 1 1 1 1 1 1 1 1 1 1 2 2 2 2 1 1 1 1 1 -0 0 0 0
0 0 0 1 1 1 1 1 1 1 1 1 1 1 1 1 2 2 1 1 1 2 2 2 1 1 1 1 1 1 1 1 1 1 1 1 1 1 -0 -0 0 -0 0
1 1 1 1 1 1 1 1 1 2 2 2 1 1 1 1 1 1 1 1 1 1 1 1 1 1 1 1 1 1 1 0 0 0 0 0 0 -0 -1 -1 -1 -1 -0
-0 -0 1 1 0 1 1 2 1 1 1 1 1 1 1 1 1 0 1 1 1 1 1 1 1 1 0 0 1 1 1 -0 0 -0 -1 -1 -1 -1 -1 -1 -1 -1 -1
-0 0 -0 0 2 2 2 2 1 2 2 2 2 1 1 1 0 1 0 0 0 -0 -0 0 0 1 1 0 0 0 1 0 -0 -1 -1 -1 -1 -2 -2 -2 -1 -1 -1
0 0 -0 -0 -0 -0 -1 -1 -1 -1 -1 -1 -0 -0 0 1 1 1 -0 -0 -1 -0 -0 -1 -1 -0 0 -0 -0 -0 -0 -1 -1 -1 -1 -1 -2 -2 -2 -2 -2 -1 -1
-1 -1 -2 -2 -2 -3 -3 -3 -3 -2 -2 -2 -1 -1 -1 -0 -0 0 1 1 -0 -2 -2 -2 -2 -2 -2 -1 -1 -1 -1 -1 -1 -2 -2 -1 -2 -2 -2 -2 -2 -2 -1
-2 -3 -3 -4 -4 -4 -4 -4 -4 -3 -3 -2 -2 -2 -3 -3 -2 -2 -2 -2 -3 -3 -3 -3 -4 -4 -3 -3 -2 -2 -2 -2 -2 -2 -2 -2 -2 -3 -2 -2 -2 -2 -2
-3 -4 -4 -4 -5 -4 -4 -4 -4 -4 -4 -3 -3 -4 -5 -5 -5 -4 -4 -4 -3 -4 -4 -4 -4 -4 -4 -4 -4 -3 -3 -3 -2 -2 -2 -2 -3 -3 -2 -2 -2 -2 -2
-3 -4 -4 -4 -4 -5 -4 -4 -5 -5 -5 -6 -6 -6 -5 -6 -6 -6 -5 -5 -5 -4 -4 -5 -5 -5 -5 -4 -4 -4 -4 -4 -3 -3 -3 -3 -3 -3 -3 -3 -3 -2 -2
-3 -3 -3 -3 -4 -4 -4 -5 -5 -6 -6 -6 -7 -7 -7 -7 -7 -7 -6 -6 -6 -5 -5 -5 -6 -6 -6 -6 -5 -4 -4 -4 -4 -4 -3 -3 -3 -3 -3 -3 -3 -2 -2
-2 -3 -3 -4 -4 -4 -5 -5 -6 -6 -6 -7 -7 -8 -8 -8 -8 -8 -7 -7 -7 -7 -7 -7 -7 -8 -7 -7 -6 -6 -5 -5 -5 -5 -4 -3 -3 -3 -3 -3 -3 -3 -3
-3 -3 -3 -4 -4 -5 -5 -6 -6 -7 -7 -8 -8 -8 -8 -8 -8 -8 -9 -9 -9 -9 -9 -9 -9 -8 -8 -7 -6 -6 -5 -5 -5 -4 -5 -4 -4 -4 -4 -4 -4 -3 -3
-3 -3 -4 -4 -5 -5 -6 -7 -7 -8 -8 -8 -8 -8 -8 -8 -9 -9 -8 -9 -9 -8 -9 -9 -9 -9 -8 -8 -7 -6 -6 -6 -5 -4 -5 -4 -4 -4 -4 -4 -4 -4 -3
Height
3050 3052 3055 3057 3059 3061 3063 3061 3056 3055 3059 3065 3071 3076 3085 3094 3099 3107 3114 3119 3125 3130 3134 3137 3141 3145 3148 3149 3151 3152 3154 3155 3156 3157 3156 3157 3157 3157 3157 3157 3157 3158 3157
3043 3046 3049 3050 3053 3055 3058 3056 3053 3055 3056 3055 3065 3074 3081 3093 3099 3104 3109 3115 3121 3125 3129 3133 3137 3140 3142 3144 3145 3147 3149 3151 3150 3150 3151 3152 3152 3152 3152 3153 3153 3153 3153
3038 3040 3044 3046 3048 3049 3051 3051 3050 3048 3057 3054 3063 3072 3080 3090 3095 3099 3105 3111 3116 3120 3124 3128 3130 3134 3137 3140 3140 3142 3144 3145 3146 3145 3147 3146 3145 3147 3146 3146 3147 3148 3148
3034 3036 3039 3041 3044 3045 3045 3044 3045 3046 3051 3057 3061 3070 3074 3081 3087 3093 3102 3107 3110 3113 3117 3120 3124 3128 3131 3133 3133 3135 3137 3140 3140 3141 3143 3141 3140 3139 3139 3140 3140 3141 3142
3032 3034 3036 3038 3041 3037 3038 3039 3043 3046 3048 3053 3061 3069 3075 3080 3082 3089 3095 3100 3105 3108 3111 3114 3116 3119 3121 3122 3124 3126 3130 3132 3134 3134 3136 3135 3134 3132 3133 3133 3134 3134 3133
3030 3032 3033 3037 3037 3033 3029 3033 3038 3042 3048 3055 3062 3065 3070 3075 3078 3085 3090 3093 3100 3102 3104 3107 3109 3114 3114 3116 3118 3123 3124 3124 3125 3128 3126 3126 3124 3125 3127 3127 3127 3128 3127
3026 3030 3033 3034 3035 3033 3029 3029 3035 3040 3049 3054 3056 3060 3064 3071 3075 3080 3084 3090 3092 3094 3098 3097 3102 3106 3110 3111 3113 3115 3116 3117 3119 3119 3120 3120 3121 3118 3119 3120 3123 3121 3121
3027 3030 3030 3034 3036 3036 3034 3037 3038 3043 3049 3050 3051 3058 3064 3067 3071 3075 3077 3079 3084 3087 3091 3092 3094 3097 3100 3102 3103 3103 3107 3108 3108 3111 3111 3112 3114 3114 3114 3114 3115 3115 3113
3027 3030 3033 3036 3040 3042 3045 3047 3047 3049 3050 3050 3050 3059 3065 3068 3069 3075 3076 3075 3082 3081 3081 3083 3086 3090 3089 3092 3092 3088 3092 3096 3096 3102 3102 3104 3105 3105 3105 3106 3108 3109 3108
3031 3034 3036 3039 3040 3044 3046 3046 3050 3053 3053 3055 3059 3060 3063 3065 3066 3069 3072 3071 3074 3075 3075 3077 3080 3081 3081 3083 3083 3079 3081 3088 3091 3093 3094 3097 3098 3098 3098 3099 3101 3101 3100
3036 3039 3041 3042 3044 3045 3047 3049 3050 3050 3051 3054 3056 3057 3060 3064 3065 3066 3068 3070 3070 3070 3071 3070 3071 3072 3075 3077 3076 3077 3078 3082 3084 3085 3087 3089 3090 3090 3090 3091 3092 3093 3094
3043 3044 3045 3045 3046 3048 3050 3050 3049 3050 3050 3052 3054 3056 3058 3060 3060 3060 3063 3065 3065 3065 3065 3065 3065 3066 3067 3069 3069 3070 3071 3074 3075 3076 3078 3080 3080 3081 3081 3081 3082 3082 3083
3046 3045 3043 3043 3045 3047 3048 3046 3043 3045 3048 3050 3052 3055 3058 3057 3055 3055 3055 3056 3056 3055 3055 3055 3055 3055 3056 3058 3060 3062 3062 3064 3065 3068 3068 3071 3072 3072 3072 3076 3076 3074 3074
3047 3047 3047 3046 3047 3046 3044 3045 3049 3049 3051 3051 3051 3053 3051 3049 3048 3048 3047 3047 3047 3048 3046 3046 3047 3047 3048 3049 3051 3052 3053 3054 3057 3057 3060 3062 3064 3063 3066 3066 3067 3069 3068
3047 3047 3045 3048 3047 3044 3044 3043 3043 3043 3044 3043 3043 3042 3041 3039 3040 3039 3040 3038 3036 3037 3036 3034 3036 3037 3039 3041 3042 3042 3043 3044 3046 3049 3050 3054 3055 3056 3057 3059 3059 3061 3062
3046 3046 3042 3040 3039 3038 3037 3036 3038 3037 3036 3034 3033 3033 3030 3029 3028 3026 3025 3023 3024 3026 3024 3023 3024 3026 3028 3031 3031 3031 3033 3035 3036 3039 3039 3043 3045 3049 3049 3051 3051 3053 3055
3046 3044 3041 3040 3038 3035 3033 3033 3031 3029 3029 3025 3024 3020 3017 3016 3014 3013 3011 3010 3009 3008 3010 3009 3013 3013 3015 3018 3019 3020 3022 3024 3023 3028 3031 3032 3036 3039 3041 3041 3042 3045 3046
3046 3043 3042 3039 3036 3035 3033 3031 3028 3025 3021 3018 3016 3010 3007 3003 3002 2998 2997 2995 2993 2992 2992 2995 2997 2999 3001 3004 3007 3009 3010 3012 3012 3012 3021 3024 3026 3030 3031 3032 3034 3035 3038
3041 3038 3036 3033 3031 3028 3026 3023 3020 3015 3010 3007 3004 3001 2998 2994 2990 2985 2982 2978 2975 2976 2977 2977 2980 2981 2987 2990 2994 2995 2998 3000 3003 3008 3011 3015 3017 3022 3023 3025 3025 3027 3029
3032 3031 3028 3023 3019 3016 3013 3009 3003 3001 3000 2998 2994 2990 2983 2977 2973 2967 2963 2958 2958 2956 2956 2959 2962 2967 2969 2973 2978 2981 2984 2988 2992 2996 3000 3005 3009 3011 3011 3016 3018 3018 3020
3025 3021 3017 3012 3006 3004 3000 2995 2994 2990 2987 2985 2981 2976 2973 2964 2960 2953 2947 2944 2939 2937 2938 2939 2947 2950 2954 2959 2967 2969 2972 2976 2981 2984 2988 2993 3000 2999 3004 3005 3009 3010 3011
3015 3007 3002 2997 2992 2988 2984 2981 2977 2972 2968 2964 2962 2959 2954 2948 2946 2941 2938 2932 2927 2923 2922 2921 2927 2932 2940 2943 2950 2954 2960 2964 2970 2973 2979 2982 2985 2991 2993 2996 2999 3001 3003
3010 3007 3003 2999 2993 2988 2980 2973 2967 2961 2957 2953 2948 2944 2940 2935 2932 2926 2923 2919 2915 2911 2908 2907 2910 2915 2923 2927 2935 2940 2946 2954 2958 2964 2968 2971 2972 2977 2983 2985 2989 2993 2995
3005 3001 2997 2993 2989 2983 2977 2971 2965 2959 2952 2944 2938 2933 2927 2923 2918 2913 2908 2903 2900 2898 2896 2896 2897 2901 2908 2916 2921 2925 2930 2938 2945 2950 2957 2958 2960 2965 2972 2976 2979 2983 2986
3000 2996 2992 2987 2981 2976 2970 2964 2957 2950 2943 2936 2929 2922 2916 2911 2906 2901 2895 2891 2888 2888 2887 2888 2889 2892 2894 2902 2908 2914 2919 2926 2933 2940 2943 2946 2949 2954 2961 2966 2970 2974 2977
2994 2990 2985 2979 2974 2969 2963 2955 2949 2941 2933 2927 2920 2913 2906 2899 2893 2887 2883 2881 2876 2875 2876 2878 2878 2880 2886 2890 2896 2901 2907 2913 2920 2921 2930 2934 2938 2945 2952 2955 2960 2965 2968
Wind_Speed
33 29 23 29 31 29 25 22 29 9 26 34 41 45 37 34 39 44 43 42 40 39 37 35 33 29 26 23 22 20 18 17 17 19 19 22 20 19 22 21 21 21 20
29 30 23 25 32 28 36 30 28 18 23 42 49 39 31 31 32 39 41 40 39 38 37 35 32 29 27 25 23 21 20 18 21 19 21 23 25 25 25 23 21 22 22
20 25 24 23 30 26 36 32 22 16 34 38 42 37 32 30 31 32 35 36 39 37 34 33 32 30 29 27 25 22 19 20 24 15 19 23 26 26 25 24 22 22 21
14 19 17 20 23 29 36 19 10 23 34 34 41 43 43 34 29 30 32 33 36 36 36 35 33 31 30 28 25 21 22 20 20 29 32 27 30 33 28 24 22 28 28
11 11 10 17 25 22 29 23 16 17 27 27 35 37 32 34 35 32 34 37 36 36 37 35 34 33 31 29 24 22 26 22 25 27 29 37 39 28 26 23 16 22 30
9 9 9 7 9 12 11 26 34 21 29 34 33 38 37 39 41 37 37 39 33 34 37 35 33 32 29 27 25 34 34 26 29 33 33 23 32 41 17 23 27 27 28
17 12 16 18 11 20 21 13 16 28 28 33 30 33 36 36 32 34 31 45 34 34 40 33 37 39 34 33 37 40 40 38 41 32 30 25 17 17 34 39 25 31 33
26 20 12 11 7 13 25 19 16 15 12 8 21 34 33 25 43 45 45 38 31 47 51 37 39 33 38 35 40 47 42 41 36 43 30 28 32 30 31 32 34 36 34
19 12 18 17 14 15 14 13 13 14 10 3 8 27 18 16 18 37 24 39 31 31 45 36 39 37 43 48 41 47 57 53 32 22 27 31 32 30 31 31 31 34 32
17 15 9 6 8 7 5 5 4 5 6 5 6 9 13 16 15 21 20 24 24 22 13 32 26 20 21 23 25 20 34 49 24 29 32 31 30 30 29 32 34 33 30
12 13 11 10 9 6 3 2 2 2 4 6 9 10 13 15 16 19 21 24 26 25 25 25 27 26 25 24 23 21 20 25 27 31 30 29 31 32 32 32 30 29 30
15 13 13 12 10 8 7 5 4 4 5 8 10 15 18 21 22 22 24 25 27 28 29 30 30 29 31 29 29 27 27 30 29 29 30 30 30 31 32 29 29 28 29
9 7 6 4 2 1 1 2 2 3 5 7 9 13 17 20 23 26 26 26 26 27 29 31 32 33 32 31 29 28 28 29 29 30 29 29 30 29 28 26 25 25 25
4 3 4 6 8 9 10 11 12 13 15 16 17 20 20 21 22 24 25 27 29 29 29 30 31 32 32 31 31 31 30 31 31 29 29 29 28 27 25 23 25 26 27
5 8 9 12 13 14 16 19 19 21 23 25 27 28 29 30 32 31 32 32 31 30 30 30 30 30 32 32 34 33 34 36 34 31 30 28 27 29 28 26 26 27 30
8 10 13 15 15 17 19 21 22 24 25 27 29 32 34 36 36 37 39 40 40 39 37 35 33 33 33 34 34 35 36 35 36 35 31 30 29 31 29 28 27 28 28
12 14 16 18 21 23 24 26 26 28 30 32 34 36 39 41 42 43 44 44 44 44 44 43 42 39 36 33 31 33 34 37 41 37 35 30 30 31 30 28 27 28 28
12 13 15 16 18 20 19 20 21 22 23 26 31 33 37 41 46 47 49 50 49 49 49 48 47 47 45 40 36 34 35 35 39 37 35 30 29 31 29 29 28 27 27
9 12 14 14 14 15 14 13 15 17 18 21 24 28 35 38 41 42 48 54 56 55 54 52 50 49 47 46 42 38 37 39 39 33 36 34 29 32 28 28 28 27 25
14 15 16 17 19 21 23 23 22 21 20 20 24 31 37 40 44 50 56 59 55 55 54 55 54 50 49 47 47 44 40 40 42 39 38 36 34 33 30 29 29 27 26
20 20 23 26 29 31 31 30 29 29 28 27 30 32 32 32 35 39 43 47 51 53 53 51 50 56 50 46 45 48 44 41 42 42 41 38 37 37 33 29 29 27 26
27 30 34 37 39 39 41 41 40 40 39 39 39 38 39 37 32 33 38 43 48 51 56 55 48 48 52 49 44 45 47 43 42 41 41 39 37 37 33 30 30 29 27
30 32 34 35 37 39 42 44 45 46 45 44 43 41 39 37 36 36 34 34 36 46 53 56 52 48 46 48 44 42 43 45 41 40 39 40 39 39 37 33 31 29 27
32 34 36 37 37 39 39 41 42 43 45 48 47 43 40 38 39 37 35 36 35 35 41 48 51 43 39 44 41 41 41 46 46 42 42 42 40 39 37 36 32 28 26
33 36 38 39 41 41 41 41 42 44 46 47 46 43 41 41 40 36 37 36 32 30 27 33 38 37 33 38 39 37 38 41 44 41 41 42 43 38 38 36 31 28 26
36 38 39 41 42 42 41 41 41 43 45 45 41 40 41 41 38 38 35 32 34 29 31 29 29 32 32 31 37 37 36 39 47 44 40 40 41 42 39 36 32 30 25
Wind_Direction
231 236 241 242 238 239 232 252 263 209 229 223 205 193 198 208 212 214 212 208 206 205 208 212 217 222 228 234 239 242 251 257 257 262 267 268 264 264 271 277 279 282 283
236 239 242 245 233 246 238 249 260 240 216 190 182 201 195 205 207 207 206 207 207 207 212 217 222 228 233 237 241 246 252 261 268 266 272 268 269 268 272 273 270 273 272
238 232 242 247 238 250 252 247 248 240 206 181 192 183 186 191 198 197 203 207 208 211 216 221 227 232 237 238 241 248 252 254 256 262 277 268 270 273 275 274 274 267 267
233 245 239 232 238 247 252 206 248 238 207 212 209 211 198 194 205 202 207 209 210 213 216 222 229 235 238 239 241 247 251 258 279 269 277 273 261 263 260 262 261 266 270
231 204 201 229 246 259 250 242 231 213 203 191 202 197 197 200 203 200 205 211 215 217 223 223 222 225 226 223 231 247 250 267 282 294 269 280 288 258 254 251 266 272 273
228 187 206 212 95 74 232 228 235 218 209 199 199 190 199 205 208 206 215 212 212 217 222 221 222 230 232 248 246 254 251 264 272 290 275 301 265 236 246 242 263 271 278
155 160 129 117 89 69 84 158 177 203 204 199 212 202 204 200 203 204 214 218 213 214 227 234 236 234 242 250 241 243 252 264 266 283 260 272 250 217 241 252 268 272 277
127 127 142 135 140 79 65 66 127 159 132 59 213 204 206 222 217 216 228 232 225 223 228 236 231 232 246 256 268 265 263 259 267 267 240 237 245 248 247 252 258 266 275
135 143 124 110 103 93 94 92 107 110 110 101 84 194 215 220 237 236 279 248 244 247 243 237 239 256 263 274 274 266 251 254 254 233 243 247 247 251 247 248 251 264 270
137 129 110 116 95 94 86 88 102 132 136 155 196 219 229 237 249 254 246 214 254 252 267 242 249 263 253 262 265 271 242 248 233 234 242 246 243 251 251 251 257 265 264
86 77 72 71 66 64 50 18 321 272 254 245 254 258 263 266 263 260 260 255 252 254 253 246 246 250 249 253 252 249 244 245 243 244 239 248 250 253 254 259 262 262 263
73 70 72 73 74 73 70 64 33 354 316 283 263 257 259 262 260 256 258 261 264 261 255 250 248 249 251 255 255 250 247 248 246 238 242 247 250 256 261 261 259 258 260
88 80 62 51 50 57 8 332 319 273 258 258 255 255 257 260 261 263 265 263 261 261 262 261 258 254 254 253 253 248 246 246 246 244 245 246 252 256 256 257 258 259 257
46 2 323 313 308 308 308 301 290 285 279 274 274 271 267 263 262 261 256 257 260 261 262 264 265 263 259 254 250 246 246 249 245 243 245 248 250 251 247 250 255 258 255
301 290 292 286 291 293 291 286 286 284 278 275 271 270 268 269 268 266 263 262 260 259 257 257 256 256 259 260 258 253 253 253 239 239 240 245 247 244 246 253 256 255 254
294 296 308 305 300 299 294 295 290 286 285 282 279 275 274 271 267 263 261 260 259 259 257 255 255 255 255 255 256 258 254 252 238 236 235 241 245 245 252 256 255 255 258
316 310 306 303 298 296 292 287 290 283 280 281 282 279 277 273 268 265 262 260 258 255 254 253 251 251 252 253 254 252 250 246 232 229 234 240 246 249 256 261 258 256 258
290 287 284 280 276 275 281 281 277 274 274 274 272 270 267 268 271 270 267 263 260 259 256 252 251 249 246 244 246 248 246 251 246 222 237 243 247 253 256 258 256 256 257
288 290 289 287 292 304 301 291 291 295 293 294 279 273 267 266 265 262 262 264 266 262 255 254 251 247 248 245 241 240 241 242 245 243 244 245 253 258 258 259 256 259 260
318 316 317 326 330 334 335 333 328 322 310 292 285 277 275 273 268 264 264 266 270 268 265 259 254 251 246 243 240 236 235 238 239 238 240 244 250 255 255 259 257 256 257
330 333 335 340 342 338 336 333 325 318 313 300 294 296 293 290 286 282 278 271 270 272 270 267 259 254 250 246 245 240 233 235 235 237 238 240 246 249 254 255 255 254 257
335 341 342 340 339 337 335 331 327 324 321 318 315 311 309 306 299 283 274 270 269 266 266 266 262 252 246 243 241 243 241 233 237 237 240 242 239 248 251 253 249 251 254
334 333 332 333 333 332 329 326 326 323 320 317 316 316 315 310 304 298 289 275 274 267 263 263 264 256 243 239 235 237 240 239 234 236 238 240 236 239 245 248 245 246 251
328 327 329 331 330 327 322 319 318 314 312 311 315 318 315 310 307 303 295 290 285 267 264 260 261 261 248 235 234 233 229 233 236 231 233 235 239 236 240 241 238 242 247
325 325 327 328 326 323 321 317 313 310 308 309 315 317 312 310 309 305 298 293 280 271 267 261 260 252 259 235 234 233 234 234 233 233 232 234 235 236 239 240 236 238 243
322 324 326 325 323 322 319 315 313 310 311 314 316 312 310 312 311 307 301 292 274 269 255 254 261 252 248 244 232 228 226 225 231 232 232 234 233 236 236 231 232 236 239